EW8876 Weather Reports


Display with metric or nautical units.
time (UTC)temp
F
wind
direction
speed
MPH
gust
MPH
rain 1hr
in
rain 24hr
in
rain mn
in
humidity
%
barometer
mb
20260510005527 84 268 0.0 0.0 0.00 0.00 0.00 64 1009.7
20260510005025 84 125 0.0 0.0 0.00 0.00 0.00 63 1009.7
20260510004522 85 108 0.0 2.0 0.00 0.00 0.00 62 1009.7
20260510004020 85 120 3.0 3.0 0.00 0.00 0.00 60 1009.7
20260510003516 85 122 0.0 0.0 0.00 0.00 0.00 60 1009.6
20260510003012 85 137 0.0 2.0 0.00 0.00 0.00 59 1009.4
20260510002508 85 72 1.0 2.0 0.00 0.00 0.00 59 1009.4
20260510002005 85 149 0.0 0.0 0.00 0.00 0.00 59 1009.4
20260510001502 86 96 2.0 3.0 0.00 0.00 0.00 57 1009.3
20260510001000 86 72 1.0 2.0 0.00 0.00 0.00 56 1009.3
20260510000456 86 43 2.0 3.0 0.00 0.00 0.00 55 1009.3
20260509235952 86 100 2.0 2.0 0.00 0.00 0.00 56 1009.4
20260509235449 86 83 1.0 2.0 0.00 0.00 0.00 57 1009.2
20260509234945 86 61 1.0 3.0 0.00 0.00 0.00 56 1009.3
20260509234442 87 102 0.0 0.0 0.00 0.00 0.00 55 1009.0
20260509233940 87 100 1.0 2.0 0.00 0.00 0.00 54 1009.0
20260509233437 87 81 1.0 2.0 0.00 0.00 0.00 53 1009.1
20260509232933 87 131 0.0 2.0 0.00 0.00 0.00 53 1009.0
20260509232431 87 148 1.0 2.0 0.00 0.00 0.00 52 1009.2
20260509231927 88 195 2.0 2.0 0.00 0.00 0.00 51 1008.9
20260509231424 88 128 0.0 0.0 0.00 0.00 0.00 52 1009.0
20260509230922 87 150 0.0 2.0 0.00 0.00 0.00 52 1008.9
20260509230418 87 99 0.0 0.0 0.00 0.00 0.00 51 1009.1
20260509225914 88 195 0.0 2.0 0.00 0.00 0.00 50 1009.1
20260509225411 88 63 4.0 5.0 0.00 0.00 0.00 49 1008.9
20260509224907 89 220 2.0 3.0 0.00 0.00 0.00 47 1009.2
20260509224403 90 48 1.0 2.0 0.00 0.00 0.00 47 1009.3
20260509223900 90 91 0.0 2.0 0.00 0.00 0.00 45 1009.1
20260509223356 89 140 1.0 2.0 0.00 0.00 0.00 47 1009.2
20260509222854 89 145 1.0 2.0 0.00 0.00 0.00 46 1009.0
20260509222349 90 146 2.0 3.0 0.00 0.00 0.00 46 1008.9
20260509221844 90 53 5.0 7.0 0.00 0.00 0.00 47 1009.1
20260509221342 90 70 5.0 9.0 0.00 0.00 0.00 46 1009.0
20260509220837 90 137 2.0 3.0 0.00 0.00 0.00 48 1009.0
20260509220333 90 123 0.0 2.0 0.00 0.00 0.00 52 1008.9
20260509215829 91 117 3.0 5.0 0.00 0.00 0.00 49 1009.0
20260509215326 90 82 1.0 3.0 0.00 0.00 0.00 50 1009.1
20260509214823 89 79 3.0 3.0 0.00 0.00 0.00 51 1009.2
20260509214320 89 56 2.0 3.0 0.00 0.00 0.00 50 1009.1
20260509213818 91 95 2.0 2.0 0.00 0.00 0.00 49 1009.3
20260509213312 89 75 2.0 3.0 0.00 0.00 0.00 48 1009.2
20260509212810 89 157 0.0 2.0 0.00 0.00 0.00 50 1009.4
20260509212308 89 218 1.0 2.0 0.00 0.00 0.00 50 1009.4
20260509211803 89 56 9.0 12.0 0.00 0.00 0.00 48 1009.2
20260509211259 89 113 3.0 3.0 0.00 0.00 0.00 51 1009.5
20260509210756 89 160 8.0 12.0 0.00 0.00 0.00 50 1009.6
20260509210254 88 100 2.0 3.0 0.00 0.00 0.00 50 1009.7
20260509205753 88 104 4.0 7.0 0.00 0.00 0.00 52 1009.6
20260509205248 88 321 3.0 5.0 0.00 0.00 0.00 52 1009.6
20260509204744 88 76 0.0 2.0 0.00 0.00 0.00 51 1009.8
20260509204241 89 1 1.0 2.0 0.00 0.00 0.00 47 1009.8
20260509203737 87 113 3.0 5.0 0.00 0.00 0.00 50 1009.8
20260509203235 88 95 6.0 9.0 0.00 0.00 0.00 50 1009.8
20260509202730 88 14 0.0 2.0 0.00 0.00 0.00 52 1010.0
20260509202226 87 68 2.0 3.0 0.00 0.00 0.00 47 1010.1
20260509201721 87 221 2.0 3.0 0.00 0.00 0.00 48 1010.6
20260509201218 87 316 1.0 2.0 0.00 0.00 0.00 47 1010.5
20260509200715 86 159 3.0 3.0 0.00 0.00 0.00 48 1010.8
20260509200210 85 90 5.0 7.0 0.00 0.00 0.00 48 1010.9
20260509195705 86 69 2.0 3.0 0.00 0.00 0.00 54 1011.0
20260509195200 88 100 5.0 7.0 0.00 0.00 0.00 54 1011.0
20260509194655 90 65 2.0 3.0 0.00 0.00 0.00 56 1010.5
20260509194152 88 136 0.0 0.0 0.00 0.00 0.00 61 1010.7
20260509193648 90 136 0.0 0.0 0.00 0.00 0.00 56 1010.3
20260509193144 92 160 0.0 0.0 0.00 0.00 0.00 54 1010.7
20260509192641 91 199 2.0 2.0 0.00 0.00 0.00 54 1010.5
20260509192136 91 178 2.0 3.0 0.00 0.00 0.00 58 1010.5
20260509191635 91 160 0.0 2.0 0.00 0.00 0.00 55 1010.5
20260509191132 90 152 0.0 0.0 0.00 0.00 0.00 64 1010.6
20260509190629 88 122 3.0 3.0 0.00 0.00 0.00 62 1010.8
20260509190126 87 161 0.0 0.0 0.00 0.00 0.00 65 1010.7
20260509185624 87 138 0.0 0.0 0.00 0.00 0.00 66 1010.9
20260509185120 88 136 0.0 0.0 0.00 0.00 0.00 63 1010.9
20260509184618 88 142 0.0 0.0 0.00 0.00 0.00 63 1011.0
20260509184115 89 110 0.0 0.0 0.00 0.00 0.00 63 1011.0
20260509183610 89 135 0.0 0.0 0.00 0.00 0.00 64 1011.2
20260509183106 89 113 3.0 3.0 0.00 0.00 0.00 61 1011.2
20260509182602 88 149 1.0 2.0 0.00 0.00 0.00 62 1011.3
20260509182059 91 188 2.0 3.0 0.00 0.00 0.00 62 1011.2
20260509181558 90 142 0.0 0.0 0.00 0.00 0.00 65 1011.2
20260509181054 89 155 2.0 2.0 0.00 0.00 0.00 64 1011.5
20260509180550 89 125 0.0 0.0 0.00 0.00 0.00 66 1011.6
20260509180048 89 179 3.0 5.0 0.00 0.00 0.00 65 1011.6
20260509175543 87 147 0.0 0.0 0.00 0.00 0.00 67 1011.5
20260509175041 87 146 0.0 0.0 0.00 0.00 0.00 69 1011.4
20260509174537 86 185 4.0 5.0 0.00 0.00 0.00 69 1011.6
20260509174032 87 155 0.0 0.0 0.00 0.00 0.00 71 1011.7
20260509173526 87 134 0.0 0.0 0.00 0.00 0.00 69 1011.8
20260509173023 88 149 2.0 2.0 0.00 0.00 0.00 71 1012.1
20260509172520 88 70 0.0 0.0 0.00 0.00 0.00 69 1012.1
20260509172016 87 152 0.0 2.0 0.00 0.00 0.00 73 1012.2
20260509171512 88 122 0.0 0.0 0.00 0.00 0.00 71 1012.2
20260509171009 87 162 2.0 2.0 0.00 0.00 0.00 72 1012.4
20260509170504 86 205 1.0 3.0 0.00 0.00 0.00 72 1012.3
20260509170000 86 136 0.0 0.0 0.00 0.00 0.00 73 1012.3
20260509165459 87 99 2.0 3.0 0.00 0.00 0.00 72 1012.1
20260509164955 87 165 0.0 0.0 0.00 0.00 0.00 71 1012.0
20260509164451 86 82 0.0 2.0 0.00 0.00 0.00 75 1012.2
20260509163947 86 152 0.0 2.0 0.00 0.00 0.00 74 1012.2
20260509163445 84 131 1.0 2.0 0.00 0.00 0.00 77 1012.5
20260509162944 84 288 2.0 3.0 0.00 0.00 0.00 78 1012.3
20260509162443 84 182 4.0 7.0 0.00 0.00 0.00 79 1012.1
20260509161938 83 138 0.0 0.0 0.00 0.00 0.00 81 1012.3
20260509161435 82 191 1.0 2.0 0.00 0.00 0.00 81 1012.3
20260509160930 82 140 2.0 3.0 0.00 0.00 0.00 83 1012.2
20260509160426 80 133 3.0 3.0 0.00 0.00 0.00 85 1012.3
20260509155921 78 228 3.0 3.0 0.00 0.00 0.00 86 1012.5
20260509155418 78 199 2.0 3.0 0.00 0.00 0.00 87 1012.5
20260509154915 77 167 4.0 5.0 0.00 0.00 0.00 88 1012.5
20260509154411 78 183 3.0 3.0 0.00 0.00 0.00 89 1012.6
20260509153908 78 141 0.0 0.0 0.00 0.00 0.00 88 1012.5
20260509153405 78 199 0.0 2.0 0.00 0.00 0.00 88 1012.5
20260509152902 79 168 2.0 3.0 0.00 0.00 0.00 87 1012.1
20260509152358 79 190 1.0 3.0 0.00 0.00 0.00 87 1012.1
20260509151856 80 157 1.0 2.0 0.00 0.00 0.00 86 1011.8
20260509151351 79 189 2.0 3.0 0.00 0.00 0.00 85 1011.9
20260509150850 78 107 0.0 2.0 0.00 0.00 0.00 88 1011.8
20260509150347 80 119 2.0 3.0 0.00 0.00 0.00 86 1011.7
20260509145844 80 130 0.0 0.0 0.00 0.00 0.00 86 1011.7
20260509145339 80 189 2.0 3.0 0.00 0.00 0.00 86 1011.6
20260509144835 79 182 3.0 3.0 0.00 0.00 0.00 88 1011.8
20260509144332 78 199 3.0 5.0 0.00 0.00 0.00 88 1012.0
20260509143829 78 196 4.0 5.0 0.00 0.00 0.00 88 1011.7
20260509143327 79 86 2.0 2.0 0.00 0.00 0.00 88 1011.7
20260509142823 79 116 5.0 7.0 0.00 0.00 0.00 86 1011.7
20260509142319 79 193 1.0 3.0 0.00 0.00 0.00 87 1011.4
20260509141815 79 185 1.0 2.0 0.00 0.00 0.00 87 1011.2
20260509141312 78 160 0.0 2.0 0.00 0.00 0.00 89 1011.2
20260509140808 77 153 0.0 2.0 0.00 0.00 0.00 91 1011.0
20260509140306 77 191 1.0 3.0 0.00 0.00 0.00 91 1011.0
20260509135803 76 172 0.0 2.0 0.00 0.00 0.00 92 1011.0
20260509135301 76 173 3.0 3.0 0.00 0.00 0.00 93 1011.0
20260509134758 76 52 3.0 3.0 0.00 0.00 0.00 93 1010.9
20260509134255 76 151 0.0 2.0 0.00 0.00 0.00 94 1011.1
20260509133752 76 161 2.0 3.0 0.00 0.00 0.00 95 1011.2
20260509133248 75 136 3.0 5.0 0.00 0.00 0.00 97 1011.1
20260509132747 74 146 1.0 2.0 0.00 0.00 0.00 99 1011.3
20260509132246 73 132 0.0 0.0 0.00 0.00 0.00 99 1011.4
20260509131742 73 180 0.0 0.0 0.00 0.00 0.00 99 1011.0
20260509131239 72 156 0.0 0.0 0.00 0.00 0.00 99 1011.5
20260509130735 73 182 3.0 3.0 0.00 0.00 0.00 99 1011.7
20260509130231 72 135 0.0 0.0 0.00 0.00 0.00 99 1011.6
20260509125727 72 172 0.0 0.0 0.00 0.00 0.00 99 1011.7
20260509125225 71 136 0.0 0.0 0.00 0.00 0.00 99 1011.9
20260509124721 71 145 0.0 0.0 0.00 0.00 0.00 99 1011.9
20260509124217 71 143 0.0 0.0 0.00 0.00 0.00 99 1011.7
20260509123716 71 143 0.0 0.0 0.00 0.00 0.00 99 1011.8
20260509123213 71 138 0.0 0.0 0.00 0.00 0.00 99 1011.8
20260509122708 71 140 0.0 0.0 0.00 0.00 0.00 99 1011.6
20260509122205 71 138 0.0 0.0 0.00 0.00 0.00 99 1011.5
20260509121702 71 141 0.0 0.0 0.00 0.00 0.00 99 1011.5
20260509121200 71 148 0.0 0.0 0.00 0.00 0.00 99 1011.5
20260509120658 71 146 0.0 0.0 0.00 0.00 0.00 99 1011.8
20260509120155 71 141 0.0 0.0 0.00 0.00 0.00 99 1011.5
20260509115653 71 140 0.0 0.0 0.00 0.00 0.00 99 1011.7
20260509115150 71 152 0.0 0.0 0.00 0.00 0.00 99 1011.5
20260509114648 71 114 0.0 0.0 0.00 0.00 0.00 99 1011.8
20260509114147 71 138 0.0 0.0 0.00 0.00 0.00 99 1012.1
20260509113645 71 131 0.0 0.0 0.00 0.00 0.00 99 1011.8
20260509113141 71 144 0.0 0.0 0.00 0.00 0.00 99 1012.2
20260509112638 71 135 0.0 0.0 0.00 0.00 0.00 99 1012.4
20260509112135 71 136 0.0 0.0 0.00 0.00 0.00 99 1012.3
20260509111632 71 136 0.0 0.0 0.00 0.00 0.00 99 1012.6
20260509111129 72 136 0.0 0.0 0.00 0.00 0.00 99 1012.7
20260509110626 72 139 0.0 0.0 0.00 0.00 0.00 99 1012.7
20260509110123 72 119 0.0 0.0 0.00 0.00 0.00 99 1012.8
20260509105622 72 142 0.0 0.0 0.00 0.00 0.00 99 1012.8
20260509105119 72 137 0.0 0.0 0.00 0.00 0.00 99 1012.8
20260509104616 72 129 0.0 0.0 0.00 0.00 0.00 99 1012.6
20260509104112 72 135 0.0 0.0 0.00 0.00 0.00 99 1012.7
20260509103610 72 133 0.0 0.0 0.00 0.00 0.00 99 1012.9
20260509103108 72 136 0.0 0.0 0.00 0.00 0.00 99 1012.9
20260509102605 72 137 0.0 0.0 0.00 0.00 0.00 99 1012.7
20260509102102 72 139 0.0 0.0 0.00 0.00 0.00 99 1012.8
20260509101558 72 133 0.0 0.0 0.00 0.00 0.00 99 1012.5
20260509101055 72 137 0.0 0.0 0.00 0.00 0.00 99 1012.4
20260509100552 72 137 0.0 0.0 0.00 0.00 0.00 99 1012.4
20260509100050 72 31 0.0 0.0 0.00 0.00 0.00 99 1012.2
20260509095546 72 132 0.0 0.0 0.00 0.00 0.00 99 1012.1
20260509095044 72 126 0.0 0.0 0.00 0.00 0.00 99 1012.0
20260509094539 72 133 0.0 0.0 0.00 0.00 0.00 99 1011.6
20260509094037 72 129 0.0 0.0 0.00 0.00 0.00 99 1011.4
20260509093535 72 138 0.0 0.0 0.00 0.00 0.00 99 1011.2
20260509093032 72 133 0.0 0.0 0.00 0.00 0.00 99 1011.1
20260509092530 72 155 0.0 0.0 0.00 0.00 0.00 99 1011.1
20260509092029 72 137 0.0 0.0 0.00 0.00 0.00 99 1011.1
20260509091526 72 139 0.0 0.0 0.00 0.00 0.00 99 1011.2
20260509091022 72 136 0.0 0.0 0.00 0.00 0.00 99 1011.1
20260509090520 72 138 0.0 0.0 0.00 0.00 0.00 99 1011.2
20260509090017 72 136 0.0 0.0 0.00 0.00 0.00 99 1011.0
20260509085514 72 137 0.0 0.0 0.00 0.00 0.00 99 1011.1
20260509085010 72 135 0.0 0.0 0.00 0.00 0.00 99 1011.2
20260509084507 72 116 0.0 0.0 0.00 0.00 0.00 99 1011.3
20260509084004 72 128 0.0 0.0 0.00 0.00 0.00 99 1011.4
20260509083502 72 104 0.0 0.0 0.00 0.00 0.00 99 1011.4
20260509082958 72 135 0.0 0.0 0.00 0.00 0.00 99 1011.4
20260509082456 72 134 0.0 0.0 0.00 0.00 0.00 99 1011.7
20260509081953 72 140 0.0 0.0 0.00 0.00 0.00 99 1011.9
20260509081450 72 128 0.0 0.0 0.00 0.00 0.00 99 1011.6
20260509080946 72 146 0.0 0.0 0.00 0.00 0.00 99 1011.7
20260509080445 72 47 3.0 3.0 0.00 0.00 0.00 99 1011.7
20260509075943 72 130 0.0 0.0 0.00 0.00 0.00 99 1011.7
20260509075439 72 105 0.0 0.0 0.00 0.00 0.00 99 1011.5
20260509074937 72 136 0.0 0.0 0.00 0.00 0.00 99 1011.7
20260509074435 73 142 0.0 0.0 0.00 0.00 0.00 99 1011.8
20260509073931 73 136 0.0 0.0 0.00 0.00 0.00 99 1011.8
20260509073427 73 145 0.0 0.0 0.00 0.00 0.00 99 1011.7
20260509072918 73 133 0.0 0.0 0.00 0.00 0.00 98 1011.9
20260509072415 73 143 0.0 0.0 0.00 0.00 0.00 98 1012.0
20260509071911 73 140 0.0 0.0 0.00 0.00 0.00 98 1012.0
20260509071409 73 138 0.0 0.0 0.00 0.00 0.00 98 1011.8
20260509070906 73 132 0.0 0.0 0.00 0.00 0.00 98 1012.2
20260509070403 73 154 0.0 0.0 0.00 0.00 0.00 98 1012.0
20260509065858 73 137 0.0 0.0 0.00 0.00 0.00 98 1012.1
20260509065355 73 159 0.0 0.0 0.00 0.00 0.00 98 1011.8
20260509064851 73 132 0.0 0.0 0.00 0.00 0.00 98 1011.6
20260509064349 73 177 0.0 0.0 0.00 0.00 0.00 98 1011.8
20260509063846 73 112 0.0 0.0 0.00 0.00 0.00 98 1011.5
20260509063342 73 143 1.0 2.0 0.00 0.00 0.00 98 1011.7
20260509062839 73 91 2.0 3.0 0.00 0.00 0.00 97 1012.0
20260509062336 73 150 1.0 2.0 0.00 0.00 0.00 97 1012.1
20260509061833 73 141 0.0 0.0 0.00 0.00 0.00 97 1011.9
20260509061332 73 156 2.0 3.0 0.00 0.00 0.00 97 1011.5
20260509060828 73 117 2.0 3.0 0.00 0.00 0.00 97 1011.4
20260509060325 73 163 0.0 2.0 0.00 0.00 0.00 96 1011.3
20260509055821 73 152 1.0 2.0 0.00 0.00 0.00 96 1011.2
20260509055316 73 117 0.0 0.0 0.00 0.00 0.00 96 1011.2
20260509054814 73 154 2.0 3.0 0.00 0.00 0.00 96 1011.4
20260509054310 73 142 2.0 3.0 0.00 0.00 0.00 96 1011.4
20260509053809 73 156 1.0 3.0 0.00 0.00 0.00 96 1011.2
20260509053305 73 117 2.0 3.0 0.00 0.00 0.00 96 1011.0
20260509052803 73 147 2.0 3.0 0.00 0.00 0.00 96 1010.7
20260509052301 73 194 0.0 0.0 0.00 0.00 0.00 96 1010.5
20260509051758 73 132 0.0 2.0 0.00 0.00 0.00 96 1010.7
20260509051256 73 147 0.0 0.0 0.00 0.00 0.00 96 1010.5
20260509050752 73 132 0.0 0.0 0.00 0.00 0.00 96 1010.5
20260509050249 73 187 1.0 3.0 0.00 0.00 0.00 96 1010.6
20260509045746 73 179 1.0 2.0 0.00 0.00 0.00 95 1010.3
20260509045243 73 109 1.0 2.0 0.00 0.00 0.00 95 1010.5
20260509044740 73 176 0.0 0.0 0.00 0.00 0.00 95 1010.6
20260509044238 73 168 1.0 2.0 0.00 0.00 0.00 95 1010.6
20260509043734 73 148 0.0 0.0 0.00 0.00 0.00 95 1010.5
20260509043230 73 155 0.0 0.0 0.00 0.00 0.00 95 1010.8
20260509042726 73 151 0.0 0.0 0.00 0.00 0.00 95 1010.7
20260509042222 73 209 2.0 3.0 0.00 0.00 0.00 95 1011.1
20260509041714 73 173 0.0 0.0 0.00 0.00 0.00 94 1010.9
20260509041211 73 149 0.0 0.0 0.00 0.00 0.00 94 1011.1
20260509040709 73 149 0.0 0.0 0.00 0.00 0.00 94 1011.0
20260509040206 73 142 0.0 0.0 0.00 0.00 0.00 94 1011.0
20260509035703 73 136 0.0 0.0 0.00 0.00 0.00 94 1011.1
20260509035159 73 139 0.0 0.0 0.00 0.00 0.00 94 1010.9
20260509034657 73 156 3.0 3.0 0.00 0.00 0.00 93 1010.9
20260509034154 73 177 2.0 3.0 0.00 0.00 0.00 93 1010.7
20260509033651 73 169 4.0 7.0 0.00 0.00 0.00 94 1010.9
20260509033148 73 166 2.0 3.0 0.00 0.00 0.00 94 1010.8
20260509032645 73 137 1.0 3.0 0.00 0.00 0.00 94 1010.7
20260509032142 73 167 0.0 0.0 0.00 0.00 0.00 94 1010.7
20260509031640 73 169 0.0 0.0 0.00 0.00 0.00 93 1010.7
20260509031137 73 133 0.0 0.0 0.00 0.00 0.00 93 1010.6
20260509030635 73 133 0.0 0.0 0.00 0.00 0.00 92 1010.5
20260509030132 74 148 1.0 2.0 0.00 0.00 0.00 92 1010.7
20260509025628 74 140 0.0 2.0 0.00 0.00 0.00 92 1010.7
20260509025124 74 143 0.0 2.0 0.00 0.00 0.00 92 1010.9
20260509024619 74 165 0.0 0.0 0.00 0.00 0.00 91 1010.6
20260509024115 74 142 0.0 0.0 0.00 0.00 0.00 91 1010.5
20260509023614 74 140 0.0 0.0 0.00 0.00 0.00 91 1010.2
20260509023110 74 184 0.0 0.0 0.00 0.00 0.00 90 1010.5
20260509022607 75 177 1.0 2.0 0.00 0.00 0.00 90 1010.3
20260509022105 75 160 3.0 5.0 0.00 0.00 0.00 89 1010.0
20260509021601 75 153 0.0 0.0 0.00 0.00 0.00 89 1010.2
20260509021058 75 150 1.0 2.0 0.00 0.00 0.00 89 1010.1
20260509020556 75 160 1.0 2.0 0.00 0.00 0.00 89 1009.9
20260509020053 75 144 1.0 2.0 0.00 0.00 0.00 88 1009.8
20260509015547 76 133 0.0 2.0 0.00 0.00 0.00 88 1009.8
20260509015043 76 156 1.0 2.0 0.00 0.00 0.00 88 1009.5
20260509014540 76 158 0.0 2.0 0.00 0.00 0.00 87 1009.8
20260509014036 76 147 0.0 0.0 0.00 0.00 0.00 86 1009.7
20260509013533 76 191 0.0 2.0 0.00 0.00 0.00 86 1009.5
20260509013029 76 181 3.0 3.0 0.00 0.00 0.00 86 1009.5
20260509012526 77 158 1.0 3.0 0.00 0.00 0.00 86 1009.5
20260509012022 77 206 1.0 2.0 0.00 0.00 0.00 85 1009.4
20260509011521 77 123 0.0 2.0 0.00 0.00 0.00 84 1009.4
20260509011018 77 156 1.0 2.0 0.00 0.00 0.00 84 1009.6
20260509010515 78 139 0.0 0.0 0.00 0.00 0.00 83 1009.4
20260509010011 77 186 0.0 2.0 0.00 0.00 0.00 83 1009.5